| time (UTC) | temp F | wind direction | speed knots | gust knots | rain 1hr in | rain 24hr in | rain mn in | humidity % | barometer mb |
| 20260904045904 | 60 | 51 | 0.9 | 2.6 | 0.00 | 0.01 | 0.00 | 89 | 1016.4 |
| 20260904045404 | 60 | 51 | 0.9 | 2.6 | 0.00 | 0.01 | 0.00 | 89 | 1016.4 |
| 20260904044904 | 60 | 51 | 0.0 | 0.9 | 0.00 | 0.01 | 0.00 | 89 | 1016.4 |
| 20260904044404 | 59 | 51 | 0.0 | 1.7 | 0.00 | 0.01 | 0.00 | 89 | 1016.3 |
| 20260904043904 | 59 | 51 | 0.9 | 2.6 | 0.00 | 0.01 | 0.00 | 89 | 1016.2 |
| 20260904043404 | 59 | 51 | 0.9 | 1.7 | 0.00 | 0.01 | 0.00 | 89 | 1016.4 |
| 20260904042904 | 59 | 51 | 0.9 | 1.7 | 0.00 | 0.01 | 0.00 | 89 | 1016.3 |
| 20260904041904 | 59 | 51 | 0.9 | 1.7 | 0.00 | 0.01 | 0.00 | 89 | 1016.3 |
| 20260904041404 | 59 | 51 | 0.0 | 0.9 | 0.00 | 0.01 | 0.00 | 89 | 1016.4 |
| 20260904040904 | 59 | 51 | 0.0 | 1.7 | 0.00 | 0.01 | 0.00 | 89 | 1016.2 |
| 20260904040404 | 59 | 51 | 0.0 | 0.9 | 0.00 | 0.01 | 0.00 | 89 | 1016.4 |
| 20260904035904 | 59 | 51 | 0.0 | 1.7 | 0.00 | 0.01 | 0.00 | 89 | 1016.4 |
| 20260904035405 | 59 | 51 | 0.9 | 1.7 | 0.00 | 0.01 | 0.00 | 89 | 1016.3 |
| 20260904034904 | 59 | 51 | 0.9 | 2.6 | 0.00 | 0.01 | 0.00 | 89 | 1016.3 |
| 20260904034404 | 59 | 51 | 0.9 | 1.7 | 0.00 | 0.01 | 0.00 | 89 | 1016.3 |
| 20260904033904 | 59 | 51 | 0.9 | 1.7 | 0.00 | 0.01 | 0.00 | 89 | 1016.3 |
| 20260904033405 | 59 | 51 | 0.0 | 0.9 | 0.00 | 0.01 | 0.00 | 89 | 1016.3 |
| 20260904032904 | 59 | 51 | 0.0 | 0.9 | 0.00 | 0.01 | 0.00 | 89 | 1016.4 |
| 20260904032404 | 59 | 51 | 0.0 | 0.9 | 0.00 | 0.01 | 0.00 | 89 | 1016.4 |
| 20260904031904 | 59 | 51 | 0.0 | 0.0 | 0.00 | 0.01 | 0.00 | 89 | 1016.5 |
| 20260904031404 | 58 | 51 | 0.0 | 0.9 | 0.00 | 0.01 | 0.00 | 89 | 1016.6 |
| 20260904030904 | 58 | 51 | 0.0 | 1.7 | 0.00 | 0.01 | 0.00 | 89 | 1016.7 |
| 20260904030404 | 58 | 51 | 0.0 | 0.9 | 0.00 | 0.01 | 0.00 | 89 | 1016.7 |
| 20260904025905 | 58 | 51 | 0.0 | 0.0 | 0.00 | 0.01 | 0.00 | 89 | 1016.6 |
| 20260904025404 | 58 | 51 | 0.0 | 0.0 | 0.00 | 0.01 | 0.00 | 89 | 1016.5 |
| 20260904024405 | 58 | 51 | 0.9 | 2.6 | 0.00 | 0.01 | 0.00 | 89 | 1016.4 |
| 20260904023905 | 58 | 51 | 0.9 | 1.7 | 0.00 | 0.01 | 0.00 | 89 | 1016.5 |
| 20260904022905 | 58 | 51 | 0.0 | 1.7 | 0.00 | 0.01 | 0.00 | 89 | 1016.5 |
| 20260904022404 | 58 | 51 | 0.0 | 1.7 | 0.00 | 0.01 | 0.00 | 89 | 1016.3 |
| 20260904021905 | 58 | 51 | 0.9 | 2.6 | 0.00 | 0.01 | 0.00 | 89 | 1016.3 |
| 20260904021405 | 58 | 51 | 0.9 | 2.6 | 0.00 | 0.01 | 0.00 | 89 | 1016.3 |
| 20260904020904 | 58 | 51 | 0.0 | 2.6 | 0.00 | 0.01 | 0.00 | 89 | 1016.2 |
| 20260904015904 | 58 | 51 | 0.0 | 0.9 | 0.00 | 0.01 | 0.00 | 89 | 1016.2 |
| 20260904015405 | 58 | 51 | 0.0 | 0.9 | 0.00 | 0.01 | 0.00 | 89 | 1016.3 |
| 20260904014904 | 58 | 51 | 0.9 | 1.7 | 0.00 | 0.01 | 0.00 | 89 | 1016.4 |
| 20260904014404 | 58 | 51 | 0.9 | 0.9 | 0.00 | 0.01 | 0.00 | 89 | 1016.5 |
| 20260904013904 | 58 | 51 | 0.0 | 1.7 | 0.00 | 0.01 | 0.00 | 90 | 1016.5 |
| 20260904012904 | 58 | 51 | 0.9 | 1.7 | 0.00 | 0.01 | 0.00 | 89 | 1016.5 |
| 20260904012405 | 58 | 51 | 0.0 | 1.7 | 0.00 | 0.01 | 0.00 | 89 | 1016.5 |
| 20260904011904 | 58 | 51 | 0.0 | 1.7 | 0.00 | 0.01 | 0.00 | 89 | 1016.6 |
| 20260904011405 | 58 | 51 | 0.0 | 1.7 | 0.00 | 0.01 | 0.00 | 89 | 1016.6 |
| 20260904010904 | 58 | 51 | 0.9 | 1.7 | 0.00 | 0.01 | 0.00 | 89 | 1016.7 |
| 20260904010405 | 58 | 51 | 0.0 | 1.7 | 0.00 | 0.01 | 0.00 | 89 | 1016.7 |
| 20260904005905 | 58 | 51 | 0.0 | 1.7 | 0.00 | 0.01 | 0.00 | 89 | 1016.7 |
| 20260904005404 | 58 | 51 | 0.0 | 0.0 | 0.00 | 0.01 | 0.00 | 89 | 1016.6 |
| 20260904004905 | 58 | 51 | 0.0 | 0.0 | 0.00 | 0.01 | 0.00 | 89 | 1016.7 |
| 20260904004405 | 58 | 51 | 0.0 | 0.0 | 0.00 | 0.01 | 0.00 | 90 | 1016.7 |
| 20260904003905 | 58 | 51 | 0.9 | 2.6 | 0.00 | 0.01 | 0.00 | 90 | 1016.8 |
| 20260904003404 | 58 | 44 | 1.7 | 2.6 | 0.00 | 0.01 | 0.00 | 89 | 1016.7 |
| 20260904002904 | 58 | 57 | 1.7 | 2.6 | 0.00 | 0.01 | 0.00 | 89 | 1016.7 |
| 20260904002404 | 58 | 44 | 0.9 | 1.7 | 0.00 | 0.01 | 0.00 | 89 | 1016.8 |
| 20260904001905 | 58 | 44 | 0.0 | 2.6 | 0.00 | 0.01 | 0.00 | 89 | 1016.8 |
| 20260904001405 | 58 | 44 | 0.9 | 2.6 | 0.00 | 0.01 | 0.00 | 89 | 1016.7 |
| 20260904000904 | 58 | 44 | 0.0 | 1.7 | 0.00 | 0.01 | 0.00 | 89 | 1016.8 |
| 20260904000404 | 58 | 44 | 0.0 | 1.7 | 0.00 | 0.01 | 0.00 | 89 | 1016.9 |
| 20260903235905 | 58 | 44 | 1.7 | 2.6 | 0.00 | 0.01 | 0.00 | 89 | 1016.9 |
| 20260903234905 | 58 | 44 | 0.0 | 0.0 | 0.00 | 0.01 | 0.00 | 89 | 1017.1 |
| 20260903234404 | 58 | 44 | 0.0 | 0.0 | 0.00 | 0.01 | 0.00 | 89 | 1017.1 |
| 20260903233904 | 58 | 44 | 0.0 | 0.0 | 0.00 | 0.01 | 0.00 | 89 | 1017.0 |
| 20260903233404 | 58 | 44 | 0.0 | 0.9 | 0.00 | 0.01 | 0.00 | 89 | 1017.0 |
| 20260903232404 | 58 | 44 | 1.7 | 2.6 | 0.00 | 0.01 | 0.00 | 89 | 1016.9 |
| 20260903231404 | 58 | 53 | 1.7 | 2.6 | 0.00 | 0.01 | 0.00 | 88 | 1017.0 |
| 20260903230904 | 58 | 56 | 0.9 | 1.7 | 0.00 | 0.01 | 0.00 | 88 | 1017.1 |
| 20260903230404 | 58 | 56 | 0.9 | 1.7 | 0.00 | 0.01 | 0.00 | 87 | 1017.1 |
| 20260903225904 | 58 | 56 | 0.0 | 0.0 | 0.00 | 0.01 | 0.00 | 87 | 1017.2 |
| 20260903225404 | 59 | 56 | 0.0 | 0.0 | 0.00 | 0.01 | 0.00 | 87 | 1017.2 |
| 20260903224904 | 59 | 56 | 0.0 | 0.9 | 0.00 | 0.01 | 0.00 | 87 | 1017.2 |
| 20260903224405 | 59 | 56 | 0.0 | 0.0 | 0.00 | 0.01 | 0.00 | 87 | 1017.2 |
| 20260903223904 | 59 | 56 | 0.0 | 0.0 | 0.00 | 0.01 | 0.00 | 87 | 1017.1 |
| 20260903223405 | 59 | 56 | 0.0 | 0.0 | 0.00 | 0.01 | 0.00 | 87 | 1017.1 |
| 20260903222904 | 59 | 56 | 0.0 | 0.0 | 0.00 | 0.01 | 0.00 | 86 | 1017.0 |
| 20260903221904 | 59 | 56 | 0.0 | 0.0 | 0.00 | 0.01 | 0.00 | 87 | 1017.1 |
| 20260903221404 | 59 | 56 | 0.0 | 0.0 | 0.00 | 0.01 | 0.00 | 86 | 1017.0 |
| 20260903220904 | 59 | 56 | 0.0 | 0.9 | 0.00 | 0.01 | 0.00 | 86 | 1017.1 |
| 20260903220404 | 59 | 56 | 0.0 | 0.0 | 0.00 | 0.01 | 0.00 | 86 | 1017.2 |
| 20260903215405 | 60 | 56 | 0.0 | 0.0 | 0.00 | 0.01 | 0.01 | 86 | 1017.1 |
| 20260903214904 | 60 | 56 | 0.0 | 0.0 | 0.00 | 0.01 | 0.01 | 86 | 1017.1 |
| 20260903214404 | 60 | 56 | 0.0 | 0.0 | 0.00 | 0.01 | 0.01 | 86 | 1017.2 |
| 20260903213906 | 60 | 56 | 0.0 | 0.0 | 0.00 | 0.01 | 0.01 | 86 | 1017.1 |
| 20260903213404 | 60 | 56 | 0.0 | 1.7 | 0.00 | 0.01 | 0.01 | 85 | 1017.0 |
| 20260903212904 | 60 | 55 | 0.0 | 0.0 | 0.00 | 0.01 | 0.01 | 85 | 1017.0 |
| 20260903212404 | 60 | 55 | 0.0 | 1.7 | 0.00 | 0.01 | 0.01 | 84 | 1017.0 |
| 20260903211905 | 60 | 55 | 0.9 | 1.7 | 0.00 | 0.01 | 0.01 | 84 | 1016.9 |
| 20260903211404 | 60 | 55 | 1.7 | 2.6 | 0.00 | 0.01 | 0.01 | 84 | 1016.8 |
| 20260903210904 | 60 | 57 | 0.0 | 1.7 | 0.00 | 0.01 | 0.01 | 84 | 1016.8 |
| 20260903205904 | 61 | 57 | 0.0 | 0.9 | 0.00 | 0.01 | 0.01 | 83 | 1016.8 |
| 20260903205405 | 61 | 57 | 0.0 | 2.6 | 0.00 | 0.01 | 0.01 | 83 | 1016.8 |
| 20260903204904 | 61 | 57 | 0.0 | 1.7 | 0.00 | 0.01 | 0.01 | 83 | 1016.7 |
| 20260903204405 | 61 | 57 | 0.9 | 2.6 | 0.00 | 0.01 | 0.01 | 82 | 1016.7 |
| 20260903203904 | 61 | 57 | 0.9 | 2.6 | 0.00 | 0.01 | 0.01 | 82 | 1016.7 |
| 20260903203404 | 61 | 57 | 1.7 | 2.6 | 0.00 | 0.01 | 0.01 | 82 | 1016.7 |
| 20260903202904 | 62 | 80 | 1.7 | 2.6 | 0.00 | 0.01 | 0.01 | 82 | 1016.7 |
| 20260903202404 | 62 | 80 | 1.7 | 2.6 | 0.00 | 0.01 | 0.01 | 81 | 1016.6 |
| 20260903201904 | 62 | 81 | 1.7 | 2.6 | 0.00 | 0.01 | 0.01 | 80 | 1016.6 |
| 20260903201404 | 62 | 82 | 1.7 | 2.6 | 0.00 | 0.01 | 0.01 | 80 | 1016.7 |
| 20260903200905 | 62 | 85 | 1.7 | 2.6 | 0.00 | 0.01 | 0.01 | 80 | 1016.6 |
| 20260903200404 | 63 | 248 | 0.9 | 1.7 | 0.00 | 0.01 | 0.01 | 79 | 1016.6 |
| 20260903195904 | 63 | 248 | 0.0 | 0.0 | 0.00 | 0.01 | 0.01 | 78 | 1016.6 |
| 20260903195404 | 63 | 248 | 0.0 | 0.9 | 0.00 | 0.01 | 0.01 | 78 | 1016.6 |
| 20260903194904 | 63 | 248 | 0.9 | 0.9 | 0.00 | 0.01 | 0.01 | 77 | 1016.7 |
| 20260903194404 | 63 | 248 | 0.0 | 0.0 | 0.00 | 0.01 | 0.01 | 77 | 1016.7 |
| 20260903193904 | 64 | 248 | 0.0 | 0.0 | 0.00 | 0.01 | 0.01 | 77 | 1016.5 |
| 20260903193404 | 64 | 248 | 0.0 | 0.0 | 0.00 | 0.01 | 0.01 | 76 | 1016.6 |
| 20260903192904 | 64 | 248 | 0.0 | 0.0 | 0.00 | 0.01 | 0.01 | 75 | 1016.5 |
| 20260903192404 | 64 | 248 | 0.0 | 0.0 | 0.00 | 0.01 | 0.01 | 75 | 1016.5 |
| 20260903191904 | 65 | 248 | 0.0 | 0.0 | 0.00 | 0.01 | 0.01 | 75 | 1016.4 |
| 20260903191404 | 65 | 248 | 0.0 | 0.0 | 0.00 | 0.01 | 0.01 | 74 | 1016.3 |
| 20260903190904 | 65 | 248 | 0.0 | 0.0 | 0.00 | 0.01 | 0.01 | 74 | 1016.4 |
| 20260903190404 | 66 | 248 | 0.0 | 0.0 | 0.00 | 0.01 | 0.01 | 73 | 1016.4 |
| 20260903185905 | 66 | 248 | 0.0 | 0.0 | 0.00 | 0.01 | 0.01 | 73 | 1016.3 |
| 20260903184904 | 66 | 248 | 0.0 | 0.0 | 0.00 | 0.01 | 0.01 | 72 | 1016.3 |
| 20260903184404 | 67 | 248 | 0.0 | 0.0 | 0.00 | 0.01 | 0.01 | 72 | 1016.3 |
| 20260903183904 | 67 | 248 | 0.0 | 0.0 | 0.00 | 0.01 | 0.01 | 71 | 1016.3 |
| 20260903183404 | 67 | 248 | 0.0 | 0.0 | 0.00 | 0.01 | 0.01 | 71 | 1016.3 |
| 20260903182904 | 68 | 248 | 0.0 | 0.0 | 0.00 | 0.01 | 0.01 | 71 | 1016.2 |
| 20260903182405 | 68 | 248 | 0.0 | 0.0 | 0.00 | 0.01 | 0.01 | 70 | 1016.2 |
| 20260903181904 | 68 | 248 | 0.0 | 0.0 | 0.00 | 0.01 | 0.01 | 70 | 1016.3 |
| 20260903181404 | 69 | 248 | 0.0 | 0.0 | 0.00 | 0.01 | 0.01 | 70 | 1016.2 |
| 20260903180904 | 69 | 248 | 0.0 | 0.0 | 0.00 | 0.01 | 0.01 | 69 | 1016.1 |
| 20260903180404 | 69 | 248 | 0.0 | 0.0 | 0.00 | 0.01 | 0.01 | 68 | 1016.0 |
| 20260903175904 | 70 | 248 | 0.0 | 1.7 | 0.00 | 0.01 | 0.01 | 68 | 1015.9 |
| 20260903175404 | 70 | 248 | 0.0 | 0.0 | 0.00 | 0.01 | 0.01 | 67 | 1015.9 |
| 20260903174905 | 71 | 248 | 0.0 | 0.0 | 0.00 | 0.01 | 0.01 | 66 | 1015.8 |
| 20260903174405 | 71 | 248 | 0.0 | 0.0 | 0.00 | 0.01 | 0.01 | 66 | 1015.9 |
| 20260903173904 | 71 | 248 | 0.0 | 0.0 | 0.00 | 0.01 | 0.01 | 65 | 1015.8 |
| 20260903173405 | 72 | 248 | 0.0 | 0.0 | 0.00 | 0.01 | 0.01 | 65 | 1015.9 |
| 20260903172904 | 72 | 248 | 0.0 | 0.0 | 0.00 | 0.01 | 0.01 | 64 | 1015.8 |
| 20260903172404 | 72 | 248 | 0.0 | 0.0 | 0.00 | 0.01 | 0.01 | 63 | 1015.8 |
| 20260903170904 | 73 | 248 | 0.0 | 0.0 | 0.00 | 0.01 | 0.01 | 61 | 1015.8 |
| 20260903170404 | 74 | 248 | 0.0 | 0.0 | 0.00 | 0.01 | 0.01 | 60 | 1015.9 |
| 20260903165904 | 74 | 248 | 0.0 | 0.0 | 0.00 | 0.01 | 0.01 | 60 | 1015.9 |
| 20260903165404 | 74 | 248 | 0.0 | 0.0 | 0.00 | 0.01 | 0.01 | 59 | 1015.8 |
| 20260903164906 | 75 | 248 | 0.0 | 0.0 | 0.00 | 0.01 | 0.01 | 58 | 1015.8 |
| 20260903163405 | 76 | 248 | 0.0 | 0.0 | 0.00 | 0.01 | 0.01 | 55 | 1015.7 |
| 20260903162904 | 76 | 248 | 0.9 | 2.6 | 0.00 | 0.01 | 0.01 | 54 | 1015.8 |
| 20260903162404 | 76 | 248 | 0.9 | 2.6 | 0.00 | 0.01 | 0.01 | 54 | 1015.8 |
| 20260903161904 | 77 | 248 | 0.9 | 2.6 | 0.00 | 0.01 | 0.01 | 53 | 1015.9 |
| 20260903160905 | 78 | 248 | 1.7 | 2.6 | 0.00 | 0.01 | 0.01 | 52 | 1015.8 |
| 20260903160405 | 78 | 248 | 0.0 | 0.0 | 0.00 | 0.01 | 0.01 | 52 | 1015.8 |
| 20260903155904 | 78 | 248 | 0.9 | 1.7 | 0.00 | 0.01 | 0.01 | 51 | 1015.8 |
| 20260903155404 | 79 | 248 | 0.9 | 1.7 | 0.00 | 0.01 | 0.01 | 51 | 1015.8 |
| 20260903154904 | 79 | 248 | 1.7 | 2.6 | 0.00 | 0.01 | 0.01 | 49 | 1015.8 |
| 20260903154405 | 79 | 248 | 0.9 | 2.6 | 0.00 | 0.01 | 0.01 | 49 | 1015.8 |
| 20260903152905 | 79 | 281 | 1.7 | 5.2 | 0.00 | 0.01 | 0.01 | 49 | 1015.9 |
| 20260903152404 | 79 | 270 | 1.7 | 4.3 | 0.00 | 0.01 | 0.01 | 49 | 1015.8 |
| 20260903151904 | 79 | 297 | 0.9 | 2.6 | 0.00 | 0.01 | 0.01 | 50 | 1015.9 |
| 20260903151405 | 78 | 276 | 1.7 | 4.3 | 0.00 | 0.01 | 0.01 | 51 | 1015.9 |
| 20260903150904 | 78 | 300 | 0.9 | 2.6 | 0.00 | 0.01 | 0.01 | 52 | 1015.9 |
| 20260903150404 | 78 | 300 | 0.9 | 2.6 | 0.01 | 0.01 | 0.01 | 52 | 1015.9 |
| 20260903145904 | 77 | 300 | 0.0 | 2.6 | 0.01 | 0.01 | 0.01 | 53 | 1016.0 |
| 20260903145404 | 77 | 308 | 1.7 | 2.6 | 0.01 | 0.01 | 0.01 | 54 | 1015.9 |
| 20260903144905 | 77 | 312 | 0.9 | 1.7 | 0.01 | 0.01 | 0.01 | 54 | 1015.9 |
| 20260903143904 | 76 | 312 | 1.7 | 2.6 | 0.01 | 0.01 | 0.01 | 56 | 1015.9 |
| 20260903143404 | 76 | 311 | 0.0 | 0.0 | 0.01 | 0.01 | 0.01 | 56 | 1016.1 |
| 20260903142405 | 76 | 311 | 1.7 | 2.6 | 0.01 | 0.01 | 0.01 | 57 | 1016.2 |
| 20260903141404 | 76 | 313 | 0.0 | 0.0 | 0.01 | 0.01 | 0.01 | 56 | 1016.0 |
| 20260903140904 | 76 | 313 | 0.0 | 0.0 | 0.01 | 0.01 | 0.01 | 56 | 1016.1 |
| 20260903140404 | 76 | 313 | 0.0 | 0.0 | 0.00 | 0.00 | 0.00 | 55 | 1016.0 |
| 20260903135404 | 76 | 313 | 0.9 | 2.6 | 0.00 | 0.00 | 0.00 | 55 | 1016.1 |
| 20260903134904 | 76 | 313 | 0.9 | 1.7 | 0.00 | 0.00 | 0.00 | 56 | 1016.0 |
| 20260903133905 | 76 | 313 | 0.0 | 0.9 | 0.00 | 0.00 | 0.00 | 57 | 1016.1 |
| 20260903132904 | 76 | 313 | 0.9 | 2.6 | 0.00 | 0.00 | 0.00 | 55 | 1016.2 |
| 20260903132404 | 76 | 313 | 0.9 | 2.6 | 0.00 | 0.00 | 0.00 | 55 | 1016.2 |
| 20260903131904 | 76 | 312 | 0.9 | 2.6 | 0.00 | 0.00 | 0.00 | 55 | 1016.3 |
| 20260903131404 | 76 | 311 | 0.9 | 2.6 | 0.00 | 0.00 | 0.00 | 56 | 1016.3 |
| 20260903130905 | 76 | 34 | 0.9 | 2.6 | 0.00 | 0.00 | 0.00 | 56 | 1016.2 |
| 20260903130404 | 75 | 34 | 0.9 | 2.6 | 0.00 | 0.00 | 0.00 | 56 | 1016.1 |
| 20260903124904 | 74 | 73 | 0.9 | 2.6 | 0.00 | 0.00 | 0.00 | 58 | 1016.6 |
| 20260903124404 | 74 | 101 | 0.0 | 2.6 | 0.00 | 0.00 | 0.00 | 59 | 1016.6 |
| 20260903123904 | 74 | 225 | 0.0 | 1.7 | 0.00 | 0.00 | 0.00 | 58 | 1016.6 |
| 20260903123404 | 74 | 225 | 0.0 | 1.7 | 0.00 | 0.00 | 0.00 | 58 | 1016.8 |
| 20260903122904 | 74 | 225 | 0.0 | 2.6 | 0.00 | 0.00 | 0.00 | 58 | 1016.8 |
| 20260903121904 | 73 | 238 | 0.0 | 0.9 | 0.00 | 0.00 | 0.00 | 60 | 1017.0 |
| 20260903121404 | 73 | 238 | 0.0 | 2.6 | 0.00 | 0.00 | 0.00 | 58 | 1017.1 |
| 20260903120404 | 74 | 236 | 2.6 | 6.1 | 0.00 | 0.00 | 0.00 | 58 | 1017.1 |
| 20260903115404 | 74 | 232 | 1.7 | 7.0 | 0.00 | 0.00 | 0.00 | 57 | 1017.2 |
| 20260903114904 | 74 | 214 | 2.6 | 8.7 | 0.00 | 0.00 | 0.00 | 56 | 1017.2 |
| 20260903114405 | 74 | 226 | 3.5 | 8.7 | 0.00 | 0.00 | 0.00 | 57 | 1017.2 |
| 20260903113404 | 74 | 207 | 5.2 | 10.4 | 0.00 | 0.00 | 0.00 | 57 | 1017.2 |
| 20260903112904 | 73 | 152 | 2.6 | 7.8 | 0.00 | 0.00 | 0.00 | 59 | 1017.1 |
| 20260903112404 | 73 | 182 | 1.7 | 5.2 | 0.00 | 0.00 | 0.00 | 59 | 1017.2 |
| 20260903111405 | 73 | 205 | 2.6 | 5.2 | 0.00 | 0.00 | 0.00 | 63 | 1017.3 |
| 20260903110904 | 73 | 201 | 3.5 | 7.8 | 0.00 | 0.00 | 0.00 | 64 | 1017.3 |
| 20260903105904 | 72 | 175 | 2.6 | 4.3 | 0.00 | 0.00 | 0.00 | 65 | 1017.4 |
| 20260903105404 | 72 | 157 | 1.7 | 4.3 | 0.00 | 0.00 | 0.00 | 64 | 1017.4 |
| 20260903104904 | 72 | 156 | 0.9 | 2.6 | 0.00 | 0.00 | 0.00 | 65 | 1017.4 |
| 20260903104404 | 72 | 190 | 1.7 | 2.6 | 0.00 | 0.00 | 0.00 | 65 | 1017.5 |
| 20260903103905 | 72 | 188 | 0.0 | 2.6 | 0.00 | 0.00 | 0.00 | 66 | 1017.5 |
| 20260903102404 | 71 | 180 | 0.9 | 2.6 | 0.00 | 0.00 | 0.00 | 65 | 1017.6 |
| 20260903101904 | 71 | 180 | 0.9 | 2.6 | 0.00 | 0.00 | 0.00 | 65 | 1017.7 |
| 20260903101404 | 71 | 180 | 0.0 | 1.7 | 0.00 | 0.00 | 0.00 | 65 | 1017.7 |
| 20260903100904 | 71 | 180 | 0.9 | 4.3 | 0.00 | 0.00 | 0.00 | 66 | 1017.8 |
| 20260903100404 | 71 | 192 | 0.9 | 5.2 | 0.00 | 0.00 | 0.00 | 66 | 1017.8 |
| 20260903095904 | 71 | 191 | 1.7 | 5.2 | 0.00 | 0.00 | 0.00 | 66 | 1017.8 |
| 20260903095405 | 71 | 199 | 1.7 | 4.3 | 0.00 | 0.00 | 0.00 | 67 | 1017.8 |
| 20260903094904 | 71 | 180 | 0.0 | 2.6 | 0.00 | 0.00 | 0.00 | 65 | 1017.9 |
| 20260903094404 | 71 | 180 | 0.9 | 4.3 | 0.00 | 0.00 | 0.00 | 66 | 1018.0 |
| 20260903093904 | 71 | 179 | 1.7 | 4.3 | 0.00 | 0.00 | 0.00 | 66 | 1018.0 |
| 20260903093404 | 71 | 195 | 0.9 | 2.6 | 0.00 | 0.00 | 0.00 | 66 | 1018.0 |
| 20260903092905 | 71 | 227 | 0.9 | 4.3 | 0.00 | 0.00 | 0.00 | 67 | 1018.1 |
| 20260903092404 | 71 | 198 | 1.7 | 4.3 | 0.00 | 0.00 | 0.00 | 68 | 1018.1 |
| 20260903091404 | 71 | 241 | 1.7 | 4.3 | 0.00 | 0.00 | 0.00 | 67 | 1018.1 |
| 20260903090904 | 71 | 295 | 2.6 | 5.2 | 0.00 | 0.00 | 0.00 | 66 | 1018.2 |
| 20260903090404 | 71 | 280 | 2.6 | 5.2 | 0.00 | 0.00 | 0.00 | 65 | 1018.2 |
| 20260903085904 | 71 | 234 | 1.7 | 5.2 | 0.00 | 0.00 | 0.00 | 67 | 1018.3 |
| 20260903085404 | 71 | 310 | 2.6 | 6.1 | 0.00 | 0.00 | 0.00 | 66 | 1018.3 |
| 20260903084904 | 71 | 297 | 4.3 | 8.7 | 0.00 | 0.00 | 0.00 | 66 | 1018.3 |
| 20260903084404 | 71 | 310 | 3.5 | 6.1 | 0.00 | 0.00 | 0.00 | 67 | 1018.3 |
| 20260903083904 | 70 | 287 | 4.3 | 7.0 | 0.00 | 0.00 | 0.00 | 67 | 1018.3 |
| 20260903083404 | 70 | 293 | 3.5 | 6.1 | 0.00 | 0.00 | 0.00 | 70 | 1018.2 |
| 20260903082905 | 70 | 208 | 2.6 | 4.3 | 0.00 | 0.00 | 0.00 | 74 | 1018.1 |
| 20260903082405 | 69 | 197 | 0.9 | 2.6 | 0.00 | 0.00 | 0.00 | 74 | 1018.2 |
| 20260903081904 | 69 | 194 | 1.7 | 4.3 | 0.00 | 0.00 | 0.00 | 75 | 1018.1 |
| 20260903080905 | 68 | 202 | 2.6 | 4.3 | 0.00 | 0.00 | 0.00 | 77 | 1018.1 |
| 20260903075905 | 67 | 184 | 0.9 | 1.7 | 0.00 | 0.00 | 0.00 | 78 | 1018.0 |
| 20260903075405 | 67 | 184 | 0.9 | 4.3 | 0.00 | 0.00 | 0.00 | 79 | 1018.0 |
| 20260903074904 | 66 | 181 | 1.7 | 4.3 | 0.00 | 0.00 | 0.00 | 82 | 1018.0 |
| 20260903074404 | 65 | 175 | 1.7 | 5.2 | 0.00 | 0.00 | 0.00 | 82 | 1018.1 |
| 20260903073904 | 65 | 173 | 1.7 | 4.3 | 0.00 | 0.00 | 0.00 | 84 | 1018.1 |
| 20260903073404 | 64 | 173 | 1.7 | 2.6 | 0.00 | 0.00 | 0.00 | 84 | 1018.0 |
| 20260903072905 | 64 | 173 | 1.7 | 4.3 | 0.00 | 0.00 | 0.00 | 85 | 1018.0 |
| 20260903072404 | 63 | 173 | 2.6 | 4.3 | 0.00 | 0.00 | 0.00 | 86 | 1018.0 |
| 20260903071904 | 63 | 173 | 1.7 | 4.3 | 0.00 | 0.00 | 0.00 | 88 | 1018.0 |
| 20260903071404 | 62 | 173 | 0.9 | 2.6 | 0.00 | 0.00 | 0.00 | 90 | 1017.9 |
| 20260903070904 | 62 | 244 | 1.7 | 2.6 | 0.00 | 0.00 | 0.00 | 91 | 1017.9 |
| 20260903070405 | 61 | 55 | 0.9 | 2.6 | 0.00 | 0.00 | 0.00 | 92 | 1018.0 |
| 20260903065904 | 61 | 55 | 0.0 | 1.7 | 0.00 | 0.00 | 0.00 | 92 | 1017.9 |
| 20260903065404 | 61 | 55 | 0.0 | 1.7 | 0.00 | 0.00 | 0.00 | 92 | 1017.9 |
| 20260903064904 | 60 | 55 | 0.0 | 1.7 | 0.00 | 0.00 | 0.00 | 93 | 1017.9 |
| 20260903064404 | 60 | 55 | 0.9 | 2.6 | 0.00 | 0.00 | 0.00 | 92 | 1017.9 |
| 20260903063905 | 59 | 59 | 0.0 | 1.7 | 0.00 | 0.00 | 0.00 | 93 | 1017.9 |
| 20260903062905 | 59 | 59 | 0.9 | 2.6 | 0.00 | 0.00 | 0.00 | 92 | 1018.2 |
| 20260903062404 | 58 | 55 | 1.7 | 2.6 | 0.00 | 0.00 | 0.00 | 92 | 1018.0 |
| 20260903061904 | 58 | 55 | 0.9 | 2.6 | 0.00 | 0.00 | 0.00 | 92 | 1018.0 |
| 20260903061406 | 58 | 55 | 0.9 | 2.6 | 0.00 | 0.00 | 0.00 | 92 | 1018.1 |
| 20260903060904 | 58 | 209 | 0.0 | 1.7 | 0.00 | 0.00 | 0.00 | 92 | 1018.1 |
| 20260903060404 | 58 | 209 | 0.0 | 1.7 | 0.00 | 0.00 | 0.00 | 92 | 1018.2 |
| 20260903055904 | 57 | 223 | 0.9 | 2.6 | 0.00 | 0.00 | 0.00 | 92 | 1018.3 |
| 20260903055404 | 57 | 223 | 0.9 | 4.3 | 0.00 | 0.00 | 0.00 | 92 | 1018.3 |
| 20260903054905 | 57 | 234 | 3.5 | 7.0 | 0.00 | 0.00 | 0.00 | 92 | 1018.4 |
| 20260903054404 | 57 | 228 | 1.7 | 4.3 | 0.00 | 0.00 | 0.00 | 92 | 1018.2 |
| 20260903053904 | 57 | 55 | 0.9 | 1.7 | 0.00 | 0.00 | 0.00 | 92 | 1018.0 |
| 20260903053404 | 57 | 55 | 0.9 | 0.9 | 0.00 | 0.00 | 0.00 | 92 | 1018.0 |
| 20260903052904 | 57 | 55 | 0.9 | 1.7 | 0.00 | 0.00 | 0.00 | 92 | 1017.9 |
| 20260903052404 | 57 | 55 | 0.9 | 2.6 | 0.00 | 0.00 | 0.00 | 92 | 1017.9 |
| 20260903051904 | 57 | 55 | 0.0 | 0.0 | 0.00 | 0.00 | 0.00 | 92 | 1017.9 |
| 20260903050904 | 56 | 55 | 0.0 | 1.7 | 0.00 | 0.00 | 0.00 | 92 | 1017.7 |
| 20260903050404 | 56 | 55 | 0.0 | 1.7 | 0.00 | 0.00 | 0.00 | 92 | 1017.6 |